User: anonymous   Login
Location: Unspecified
(0.0000°N, 0.0000°E)
Time: 05:27:17
(UTC+00:00)
Language:

PLEIADES HR1 - Orbit

View from above orbital plane
View from above orbital plane
View from above satellite
View from above satellite

Ground track
Ground track

The orbit data is extracted from the following two-line orbital elements,

1 38012U 11076F   17056.86518547 -.00000003  00000-0  90892-5 0  9999
2 38012  98.1728 133.4933 0001193  78.0921 282.0401 14.58561523276639
Epoch (UTC): 25 February 2017 20:45:52
Eccentricity: 0.0001193
inclination: 98.1728°
perigee height: 697 km
apogee height: 698 km
right ascension of ascending node: 133.4933°
argument of perigee: 78.0921°
revolutions per day: 14.58561523
mean anomaly at epoch: 282.0401°
orbit number at epoch: 27663

The dashed part of the orbit path shows where the satellite is in the earth's shadow,  

DLR